2021�N�x�@��C������Ԃɂ�鑪�茋��,,,,,,,,,,,,,,,
,,,,,,,,,,,,,,,
�P�@����n�_,,,,,,,,,,,,,,,
���i�s�I�b�i���i�s�I�b���r��268�Ԓn),,,,,,,,,,,,,,,
,,,,,,,,,,,,,,,
�Q�@���Ԓl�i�m��l�j��2021�N11��30���`2021�N12��22��,,,,,,,,,,,,,,,
,,,,,,,,,,,,,,,
,�N,��,��,��,SO2,SPM,Ox,CO,NO,NO2,PM2.5,���x,���x,����,����
,,,,,ppm,mg/m3,ppm,ppm,ppm,ppm,��g/m3,��,%,�ő�,m/s
H03,2021,11,30,1,***,0.009,0.001,***,***,***,9,3.3,79.4,CALM,0
H03,2021,11,30,2,0.001,0.011,0,0.3,0.009,0.021,9,3,80.1,ENE,0.6
H03,2021,11,30,3,0.001,0.009,0,0.3,0.017,0.021,9,2.6,81.8,E,0.5
H03,2021,11,30,4,0.001,0.009,0,0.3,0.011,0.018,8,2.3,82,E,0.3
H03,2021,11,30,5,0.001,0.008,0,0.4,0.014,0.018,10,2.4,82.6,CALM,0.2
H03,2021,11,30,6,0.001,0.008,0,0.3,0.02,0.018,11,2.4,81.4,E,0.6
H03,2021,11,30,7,0.001,0.009,0,0.3,0.028,0.018,11,3,80.4,CALM,0
H03,2021,11,30,8,0.001,0.012,0.001,0.4,0.043,0.02,7,5.9,71.1,WSW,1.1
H03,2021,11,30,9,0.002,0.014,0.005,0.5,0.03,0.023,10,7.9,61.7,NE,0.6
H03,2021,11,30,10,0.002,0.014,0.01,0.4,0.022,0.021,11,10.1,55.9,NW,0.8
H03,2021,11,30,11,0.002,0.015,0.008,0.5,0.017,0.026,11,11.1,55,W,1.3
H03,2021,11,30,12,0.003,0.016,0.01,0.4,0.024,0.026,10,12.2,54,ENE,1
H03,2021,11,30,13,0.003,0.016,0.017,0.4,0.017,0.025,13,15,50.1,WSW,1
H03,2021,11,30,14,0.002,0.019,0.023,0.4,0.009,0.026,12,15.6,49.8,WSW,0.6
H03,2021,11,30,15,0.003,0.021,0.025,0.4,0.007,0.032,16,16.4,52.4,WNW,0.6
H03,2021,11,30,16,0.002,0.023,0.013,0.5,0.007,0.039,18,13.5,63.7,W,1.2
H03,2021,11,30,17,0.002,0.016,0.002,0.5,0.016,0.049,15,13.1,71.2,E,0.6
H03,2021,11,30,18,0.002,0.012,0.015,0.4,0.012,0.029,11,15,76.8,SE,1.9
H03,2021,11,30,19,0.002,0.005,0.029,0.2,0.001,0.01,6,15.3,73.5,ESE,1.9
H03,2021,11,30,20,0.002,0.006,0.024,0.3,0.004,0.017,7,12.6,77.9,WSW,0.9
H03,2021,11,30,21,0.002,0.008,0.024,0.3,0.005,0.018,8,15.4,78.3,ESE,1.6
H03,2021,11,30,22,0.002,0.005,0.034,0.2,0.001,0.006,4,15.9,82.3,ESE,1.9
H03,2021,11,30,23,0.002,0.006,0.036,0.2,0,0.004,4,16.2,82.9,SE,2.5
H03,2021,11,30,24,0.002,0.006,0.036,0.2,0,0.004,4,16,93.6,SE,1.9
H03,2021,12,1,1,0.002,0.008,0.037,0.2,0,0.004,5,16.5,92.2,S,1.2
H03,2021,12,1,2,0.002,0.013,0.04,0.1,0,0.003,5,16.5,94.4,S,1.2
H03,2021,12,1,3,0.002,0.009,0.039,0.1,0,0.003,4,15.9,97.1,WSW,1.3
H03,2021,12,1,4,0.002,0.003,0.035,0.2,0,0.005,4,14.6,94.7,W,2.6
H03,2021,12,1,5,0.002,0.003,0.032,0.2,0,0.005,3,14.3,96.7,W,1.4
H03,2021,12,1,6,0.002,0.004,0.027,0.2,0,0.007,2,13.9,96,W,1.5
H03,2021,12,1,7,0.002,0,0.033,0.2,0,0.005,1,13.5,69.6,W,6
H03,2021,12,1,8,0.002,0,0.034,0.2,0,0.004,4,12.2,63.1,WSW,2.7
H03,2021,12,1,9,0.002,0.004,0.032,0.2,0.003,0.007,5,11.6,73.6,W,3.6
H03,2021,12,1,10,0.001,0.007,0.032,0.2,0.004,0.006,4,12.6,57.4,W,4.3
H03,2021,12,1,11,0.001,0.01,0.035,0.2,0.003,0.004,5,12.8,50.8,W,5.4
H03,2021,12,1,12,0.002,0.007,0.037,0.2,0.002,0.003,5,11.9,49.6,W,6.4
H03,2021,12,1,13,0.002,0.005,0.036,0.2,0.002,0.004,3,11.8,46.5,W,4.3
H03,2021,12,1,14,0.002,0.007,0.036,0.2,0.003,0.004,5,12.7,39,W,4.7
H03,2021,12,1,15,0.002,0.01,0.035,0.2,0.003,0.004,7,12.2,39.2,W,6.5
H03,2021,12,1,16,0.002,0.007,0.034,0.2,0.002,0.004,3,11,44.2,W,4.6
H03,2021,12,1,17,0.001,0.002,0.032,0.2,0.001,0.004,3,10.1,47.7,W,4.8
H03,2021,12,1,18,0.001,0.002,0.03,0.2,0.002,0.005,3,9.7,46.1,W,4.2
H03,2021,12,1,19,0.001,0.002,0.033,0.2,0.001,0.003,5,8.9,44.9,W,5.9
H03,2021,12,1,20,0.001,0.004,0.035,0.2,0.001,0.003,3,8.1,47.8,W,4.3
H03,2021,12,1,21,0.001,0.004,0.035,0.2,0.001,0.003,3,7.5,49.6,W,4.2
H03,2021,12,1,22,0.001,0.005,0.034,0.2,0.001,0.003,2,7.1,54.6,W,3.7
H03,2021,12,1,23,0.001,0.002,0.032,0.2,0.002,0.004,2,6.4,61.3,WSW,2.7
H03,2021,12,1,24,0.001,0.002,0.031,0.2,0.002,0.004,2,5.6,69.2,W,3.1
H03,2021,12,2,1,0.001,0.001,0.031,0.2,0.001,0.003,2,4.9,74.8,W,3.7
H03,2021,12,2,2,0.001,0.001,0.029,0.2,0.002,0.003,1,4.8,75.8,W,3.2
H03,2021,12,2,3,0.001,0.001,0.027,0.2,0.002,0.004,1,4.2,81.4,W,2.4
H03,2021,12,2,4,0.001,0,0.024,0.2,0.005,0.007,2,4.3,77.8,W,2.5
H03,2021,12,2,5,0.001,0.001,0.023,0.2,0.004,0.007,3,4.1,80,W,1.4
H03,2021,12,2,6,0.001,0.003,0.019,0.2,0.002,0.01,4,3.6,82.8,ENE,0.8
H03,2021,12,2,7,0.001,0.006,0.012,0.2,0.003,0.015,5,2.7,84.4,WSW,0.7
H03,2021,12,2,8,0.001,0.005,0.007,0.3,0.011,0.019,2,4.4,79.5,E,1
H03,2021,12,2,9,0.001,0.008,0.014,0.3,0.013,0.016,4,6,67.2,NE,1.2
H03,2021,12,2,10,0.001,0.005,0.021,0.3,0.008,0.009,2,8,53.7,W,2.3
H03,2021,12,2,11,0.001,0.003,0.023,0.2,0.007,0.009,4,9.3,51.1,WNW,1.1
H03,2021,12,2,12,0.001,0.005,0.026,0.2,0.006,0.008,3,10.7,48.8,NE,1.1
H03,2021,12,2,13,0.001,0.006,0.029,0.2,0.006,0.007,3,10.8,44.9,NNE,2
H03,2021,12,2,14,0.001,0.006,0.031,0.2,0.004,0.006,6,12.4,39.2,WNW,2.2
H03,2021,12,2,15,0.001,0.01,0.032,0.2,0.002,0.005,6,11.9,40.6,W,3
H03,2021,12,2,16,0.002,0.008,0.031,0.2,0.001,0.005,5,10.9,49.4,W,2.2
H03,2021,12,2,17,0.002,0,0.029,0.3,0.001,0.007,6,9.6,56.3,W,2.4
H03,2021,12,2,18,0.001,0.004,0.023,0.4,0.001,0.011,5,8.4,64.6,W,0.6
H03,2021,12,2,19,0.001,0.004,0.007,0.4,0.004,0.023,8,6.8,73.1,ENE,0.4
H03,2021,12,2,20,0.001,0.008,0.001,0.4,0.011,0.027,9,6,75.8,ESE,1
H03,2021,12,2,21,0.001,0.007,0.002,0.4,0.007,0.024,7,5.3,77.9,E,1
H03,2021,12,2,22,0.001,0.006,0.008,0.3,0.001,0.016,3,5.6,74.3,ENE,0.9
H03,2021,12,2,23,0.001,0.005,0.01,0.2,0.001,0.013,7,4.2,81.8,WSW,0.3
H03,2021,12,2,24,0.001,0.005,0.006,0.3,0.001,0.014,6,3.7,82.3,ENE,0.4
H03,2021,12,3,1,0.001,0.006,0.001,0.3,0.004,0.018,6,3.1,83.2,E,1.5
H03,2021,12,3,2,0.001,0.008,0,0.3,0.008,0.021,10,3.2,83.6,ESE,0.5
H03,2021,12,3,3,0.001,0.008,0,0.3,0.007,0.02,7,3,86,W,1.2
H03,2021,12,3,4,0.001,0.007,0,0.3,0.009,0.019,9,3.1,84.5,NE,0.3
H03,2021,12,3,5,0.001,0.008,0,0.3,0.01,0.019,6,3.9,81.4,ENE,0.4
H03,2021,12,3,6,0.001,0.009,0,0.3,0.01,0.019,5,4.1,83,W,0.9
H03,2021,12,3,7,0.001,0.01,0,0.3,0.008,0.019,6,4.6,80.4,SW,0.3
H03,2021,12,3,8,0.001,0.011,0.002,0.3,0.02,0.018,9,5.4,76.8,ENE,0.7
H03,2021,12,3,9,0.002,0.013,0.005,0.4,0.03,0.018,11,7.9,66.9,ENE,0.8
H03,2021,12,3,10,0.001,0.009,0.012,0.3,0.014,0.014,8,10.6,54.1,SSW,0.9
H03,2021,12,3,11,0.001,0.006,0.025,0.3,0.006,0.011,5,12,44.1,W,1.5
H03,2021,12,3,12,0.002,0.009,0.034,0.2,0.003,0.007,4,12.7,40.4,NW,1
H03,2021,12,3,13,0.002,0.01,0.036,0.3,0.002,0.007,6,13.4,37.9,W,0.7
H03,2021,12,3,14,0.002,0.01,0.036,0.3,0.003,0.009,5,14,35.2,W,2.4
H03,2021,12,3,15,0.002,0.01,0.037,0.2,0.003,0.008,6,14.1,33.9,W,2
H03,2021,12,3,16,0.002,0.01,0.037,0.2,0.001,0.008,6,12.9,41.5,W,1.9
H03,2021,12,3,17,0.002,0.005,0.032,0.3,0.001,0.012,9,11.1,50.7,CALM,0.1
H03,2021,12,3,18,0.002,0.008,0.004,0.6,0.012,0.035,13,9.7,61.4,E,1.1
H03,2021,12,3,19,0.002,0.015,0.001,0.5,0.017,0.037,13,7.8,68.8,CALM,0.1
H03,2021,12,3,20,0.001,0.01,0,0.6,0.017,0.033,13,7.3,72.5,ESE,0.6
H03,2021,12,3,21,0.001,0.012,0,0.5,0.009,0.031,13,6.3,75.5,ENE,0.5
H03,2021,12,3,22,0.001,0.01,0.002,0.4,0.005,0.025,11,5.8,77.1,NE,0.5
H03,2021,12,3,23,0.001,0.01,0.004,0.4,0.002,0.02,8,5.5,78.6,CALM,0.2
H03,2021,12,3,24,0.001,0.008,0.002,0.3,0.003,0.021,9,4.7,79.6,CALM,0
H03,2021,12,4,1,0.001,0.009,0.002,0.3,0.002,0.019,9,4.4,82.3,SSW,0.5
H03,2021,12,4,2,0.001,0.01,0.001,0.3,0.003,0.019,12,4.2,84.1,SSE,0.3
H03,2021,12,4,3,0.001,0.011,0,0.3,0.005,0.018,9,4.5,83,E,0.4
H03,2021,12,4,4,0.001,0.009,0,0.3,0.004,0.016,11,4.2,85.3,E,0.5
H03,2021,12,4,5,0.001,0.009,0,0.3,0.007,0.016,10,3.6,86.1,ENE,0.5
H03,2021,12,4,6,0.001,0.01,0,0.3,0.013,0.017,10,3.4,85.5,ENE,0.7
H03,2021,12,4,7,0.001,0.014,0,0.4,0.026,0.018,13,3.6,86.4,CALM,0.1
H03,2021,12,4,8,0.001,0.017,0.001,0.4,0.033,0.019,12,5.1,81.9,E,1
H03,2021,12,4,9,0.002,0.018,0.008,0.4,0.029,0.02,13,8.8,68.5,WSW,1.9
H03,2021,12,4,10,0.002,0.006,0.026,0.3,0.004,0.01,6,10.8,59.1,WSW,2.4
H03,2021,12,4,11,0.002,0.005,0.034,0.2,0.001,0.004,3,10.4,56.3,W,4
H03,2021,12,4,12,0.001,0.006,0.034,0.2,0.001,0.004,4,10.8,55.1,W,3.7
H03,2021,12,4,13,0.001,0.004,0.035,0.2,0,0.003,5,11.8,52.7,W,3.6
H03,2021,12,4,14,0.001,0.005,0.035,0.2,0,0.003,3,10.9,53.7,W,4.6
H03,2021,12,4,15,0.002,0.005,0.032,0.2,0.001,0.005,5,10.9,56.3,WNW,2.2
H03,2021,12,4,16,0.001,0.003,0.03,0.2,0.001,0.007,3,9.6,60.6,SW,2.5
H03,2021,12,4,17,0.001,0,0.033,0.2,0.001,0.005,4,8.6,61.9,SW,2.4
H03,2021,12,4,18,0.001,0,0.032,0.2,0,0.005,2,7.7,68.2,W,2.6
H03,2021,12,4,19,0.001,0.001,0.03,0.2,0,0.006,2,7.5,68.3,W,3
H03,2021,12,4,20,0.001,0.005,0.028,0.2,0,0.007,3,6.8,69.6,NE,0.6
H03,2021,12,4,21,0.001,0.003,0.027,0.2,0,0.007,1,7.4,54.2,WSW,1.9
H03,2021,12,4,22,0.001,0.005,0.03,0.2,0,0.005,4,6.8,54.6,WSW,0.9
H03,2021,12,4,23,0.001,0.003,0.029,0.2,0,0.005,3,6.4,62.7,WSW,1.7
H03,2021,12,4,24,0.001,0.002,0.027,0.2,0,0.005,3,6.3,60.8,W,2.2
H03,2021,12,5,1,0.001,0.001,0.026,0.2,0,0.004,3,6,62.4,SW,1.3
H03,2021,12,5,2,0.001,0.001,0.026,0.2,0,0.004,2,5.8,61.8,SW,0.7
H03,2021,12,5,3,0.001,0.002,0.018,0.2,0,0.007,4,3.4,75.1,E,1
H03,2021,12,5,4,0.001,0.002,0.016,0.2,0.001,0.007,2,3.8,73.2,WSW,0.7
H03,2021,12,5,5,0.001,0.002,0.022,0.2,0.001,0.005,1,4.5,64.3,NE,0.5
H03,2021,12,5,6,0.001,0.003,0.026,0.2,0,0.004,6,4.2,62.6,ENE,0.7
H03,2021,12,5,7,0.001,0.002,0.021,0.2,0.001,0.008,3,4.2,61.4,NNE,1.1
H03,2021,12,5,8,0.001,0.002,0.017,0.2,0.002,0.01,1,4.5,65,ENE,0.7
H03,2021,12,5,9,0.001,0.007,0.024,0.2,0.002,0.007,2,6.8,49.9,NNE,1.5
H03,2021,12,5,10,0.002,0.004,0.031,0.2,0.002,0.003,4,8.1,45.7,NNE,1.4
H03,2021,12,5,11,0.002,0.003,0.033,0.2,0.001,0.003,3,9,40.2,NE,1.4
H03,2021,12,5,12,0.002,0.007,0.034,0.2,0.001,0.003,3,10.2,39.1,NNE,1.4
H03,2021,12,5,13,0.002,0.007,0.034,0.2,0.001,0.003,5,10.9,38.3,N,0.9
H03,2021,12,5,14,0.002,0.008,0.035,0.2,0.001,0.003,5,11.3,38.8,W,1.3
H03,2021,12,5,15,0.002,0.006,0.033,0.2,0.001,0.005,7,11.2,39.4,WNW,0.9
H03,2021,12,5,16,0.001,0.007,0.031,0.2,0.001,0.008,5,11,44.5,N,0.6
H03,2021,12,5,17,0.001,0.004,0.031,0.2,0,0.007,5,10.7,45.8,WSW,0.8
H03,2021,12,5,18,0.002,0.007,0.027,0.3,0.001,0.008,6,10.3,50,CALM,0
H03,2021,12,5,19,0.001,0.011,0.014,0.4,0.002,0.017,7,9.9,59.4,NE,0.3
H03,2021,12,5,20,0.001,0.009,0.019,0.3,0.001,0.014,7,10.1,55.1,NNE,0.7
H03,2021,12,5,21,0.002,0.009,0.018,0.3,0.001,0.014,8,9.3,58.9,CALM,0.2
H03,2021,12,5,22,0.002,0.008,0.018,0.3,0.001,0.014,10,8.6,59.3,NW,0.4
H03,2021,12,5,23,0.001,0.009,0.012,0.3,0.002,0.017,11,7.9,68.8,ENE,0.7
H03,2021,12,5,24,0.001,0.009,0.008,0.3,0.002,0.016,8,8.5,65.8,W,0.6
H03,2021,12,6,1,0.001,0.011,0.008,0.3,0.001,0.018,8,8.8,66.7,E,0.3
H03,2021,12,6,2,0.001,0.011,0.007,0.3,0.001,0.015,10,9,66.2,N,0.3
H03,2021,12,6,3,0.002,0.011,0.009,0.3,0.001,0.013,11,9.6,63.6,WNW,0.5
H03,2021,12,6,4,0.001,0.01,0.013,0.2,0.001,0.009,7,9.4,69.2,W,1.3
H03,2021,12,6,5,0.002,0.008,0.009,0.2,0.001,0.011,10,9.4,70.1,W,0.8
H03,2021,12,6,6,0.001,0.009,0.008,0.2,0.002,0.012,10,9.4,72.1,WSW,0.4
H03,2021,12,6,7,0.001,0.007,0.007,0.2,0.002,0.017,7,8.9,80.7,NNE,0.7
H03,2021,12,6,8,0.001,0.01,0.007,0.3,0.004,0.016,8,9.2,80.3,WSW,0.4
H03,2021,12,6,9,0.002,0.014,0.004,0.4,0.011,0.02,11,9.2,83.6,W,1
H03,2021,12,6,10,0.002,0.012,0.005,0.4,0.013,0.02,10,9.7,82.1,NNW,0.4
H03,2021,12,6,11,0.002,0.014,0.006,0.4,0.013,0.021,10,9.6,89.5,W,0.4
H03,2021,12,6,12,0.002,0.012,0.004,0.3,0.017,0.023,9,9.8,91.7,NNE,0.8
H03,2021,12,6,13,0.001,0.01,0.008,0.3,0.011,0.021,9,10.2,93.5,NE,0.7
H03,2021,12,6,14,***,0.007,0.013,0.3,0.006,0.018,6,10.6,92.9,NNE,0.6
H03,2021,12,6,15,***,0.004,0.011,0.3,0.008,0.02,5,10.8,93.8,NNE,0.7
H03,2021,12,6,16,0.001,0.008,0.009,0.3,0.008,0.021,6,10.9,94.4,N,0.7
H03,2021,12,6,17,0.001,0.009,0.008,0.3,0.004,0.022,6,10.8,95.2,NNE,0.7
H03,2021,12,6,18,0.001,0.007,0.012,0.3,0.002,0.017,5,10.9,94.7,NNW,0.3
H03,2021,12,6,19,0.001,0.007,0.009,0.3,0.002,0.019,9,10.9,93.8,W,1.1
H03,2021,12,6,20,0.001,0.01,0.007,0.3,0.001,0.019,8,10.8,95.2,ENE,0.7
H03,2021,12,6,21,0.001,0.007,0.003,0.4,0.003,0.024,6,10.7,96,CALM,0.1
H03,2021,12,6,22,0.001,0.009,0.001,0.4,0.003,0.023,10,10.7,95.1,NNE,0.4
H03,2021,12,6,23,0.001,0.011,0.001,0.4,0.004,0.024,6,10.9,95,CALM,0.2
H03,2021,12,6,24,0.001,0.009,0.002,0.3,0.003,0.021,7,10.9,93.3,W,0.8
H03,2021,12,7,1,***,0.011,0.001,***,***,***,12,10.6,95,W,0.7
H03,2021,12,7,2,0.001,0.009,0.001,0.3,0.002,0.018,8,10.8,95.7,E,0.5
H03,2021,12,7,3,0.001,0.009,0.002,0.3,0.002,0.017,8,10.7,96,CALM,0.2
H03,2021,12,7,4,0.001,0.007,0.002,0.2,0.003,0.016,7,10.9,95.4,ENE,0.5
H03,2021,12,7,5,0.001,0.008,0.002,0.2,0.002,0.016,4,11,95.9,NNE,0.5
H03,2021,12,7,6,0.001,0.009,0.005,0.2,0.002,0.015,6,11.1,94.8,WSW,0.6
H03,2021,12,7,7,0.002,0.007,0.002,0.3,0.008,0.017,5,11.2,95.6,CALM,0.2
H03,2021,12,7,8,0.001,0.002,0.003,0.3,0.008,0.02,6,11.6,94.7,NE,0.7
H03,2021,12,7,9,0.001,0.003,0.009,0.3,0.007,0.016,5,12.1,92.9,WSW,0.9
H03,2021,12,7,10,0.001,0.004,0.005,0.4,0.017,0.021,7,12,95.5,NNE,0.7
H03,2021,12,7,11,0.001,0.005,0.006,0.3,0.016,0.02,6,12.4,93.6,NE,0.4
H03,2021,12,7,12,0.001,0.005,0.01,0.3,0.009,0.014,3,12.7,92.1,W,1.1
H03,2021,12,7,13,0.001,0.003,0.011,0.3,0.008,0.014,5,12.5,94.3,WSW,1.3
H03,2021,12,7,14,0.001,0.006,0.01,0.3,0.009,0.015,4,12.3,95.3,SW,0.9
H03,2021,12,7,15,0.001,0,0.015,0.2,0.003,0.012,3,12.3,94.3,WSW,1.1
H03,2021,12,7,16,0.001,0.005,0.011,0.3,0.005,0.018,2,12.2,95.8,SW,1.2
H03,2021,12,7,17,0.001,0.004,0.008,0.3,0.005,0.022,2,12.3,96.2,W,2.4
H03,2021,12,7,18,0.001,0.001,0.014,0.3,0.002,0.016,4,11.7,93.7,E,1.2
H03,2021,12,7,19,0.001,0.002,0.023,0.2,0.001,0.011,4,11.4,93.5,WSW,1
H03,2021,12,7,20,0.001,0.003,0.02,0.3,0.001,0.014,11,11,95.1,WSW,0.6
H03,2021,12,7,21,0.001,0.001,0.021,0.3,0,0.014,3,10.8,95.8,SSW,0.7
H03,2021,12,7,22,0.001,0.002,0.02,0.3,0.001,0.015,2,10.7,94.6,SW,0.6
H03,2021,12,7,23,0.001,0.003,0.02,0.2,0,0.014,2,10.8,94.4,SE,0.6
H03,2021,12,7,24,0.001,0.004,0.016,0.3,0,0.016,2,10.8,94.5,NNE,0.9
H03,2021,12,8,1,0.001,0.005,0.018,0.2,0,0.012,3,10.7,91.5,NNE,0.5
H03,2021,12,8,2,0.001,0.005,0.019,0.2,0,0.009,3,10.6,90.1,NNE,1.2
H03,2021,12,8,3,0.001,0.003,0.026,0.2,0,0.005,2,10.6,88.9,NNE,0.6
H03,2021,12,8,4,0.001,0.002,0.023,0.2,0.001,0.007,1,10.4,91,CALM,0.2
H03,2021,12,8,5,0.001,0.003,0.017,0.2,0.001,0.01,2,10.4,91.1,SW,0.7
H03,2021,12,8,6,0.001,0.004,0.011,0.2,0.001,0.017,2,10.2,88.8,S,0.6
H03,2021,12,8,7,0.001,0.004,0.01,0.2,0.001,0.02,4,10.6,81.9,WSW,1.3
H03,2021,12,8,8,0.001,0.002,0.009,0.3,0.01,0.024,3,10.8,85,E,0.5
H03,2021,12,8,9,0.001,0.003,0.024,0.3,0.006,0.015,-1,13.8,62.1,WSW,2.6
H03,2021,12,8,10,0.001,0.004,0.03,0.3,0.005,0.009,4,14.8,55.5,SW,2.9
H03,2021,12,8,11,0.001,0.006,0.032,0.2,0.005,0.008,1,14.5,51.2,WSW,3.6
H03,2021,12,8,12,0.001,0.006,0.035,0.2,0.003,0.006,4,14.4,50.7,WSW,3.1
H03,2021,12,8,13,0.001,0.005,0.035,0.2,0.004,0.006,3,14.5,48.6,WSW,3.4
H03,2021,12,8,14,0.001,0.007,0.036,0.2,0.002,0.005,5,15,46.6,SW,2.9
H03,2021,12,8,15,0.001,0.007,0.037,0.2,0.002,0.005,6,15.6,45.1,WSW,3.3
H03,2021,12,8,16,0.001,0.005,0.034,0.2,0.002,0.007,4,14.6,52,W,3.6
H03,2021,12,8,17,0.001,0.004,0.031,0.2,0.002,0.009,2,13.6,58.9,W,2.5
H03,2021,12,8,18,0.001,0.005,0.027,0.2,0.002,0.012,4,13.1,59.7,WSW,2
H03,2021,12,8,19,0.001,0.003,0.028,0.2,0.001,0.01,5,12.5,62.9,W,2.6
H03,2021,12,8,20,0.001,0.005,0.024,0.3,0,0.012,2,11.9,66.4,WSW,1.8
H03,2021,12,8,21,0.001,0.005,0.023,0.3,0.001,0.012,5,11.6,66.2,SSW,1.2
H03,2021,12,8,22,0.001,0.004,0.023,0.2,0,0.012,3,11,66.4,WSW,1.1
H03,2021,12,8,23,0.001,0.006,0.022,0.2,0,0.012,4,10.4,67.1,WSW,0.8
H03,2021,12,8,24,0.001,0.007,0.022,0.2,0,0.012,4,9,71.5,CALM,0.1
H03,2021,12,9,1,0.001,0.006,0.02,0.2,0,0.01,7,9.1,69.6,ENE,0.5
H03,2021,12,9,2,0.001,0.007,0.023,0.2,0,0.009,4,9,67.2,NNE,1.6
H03,2021,12,9,3,0.001,0.007,0.027,0.2,0,0.006,5,9.2,65.2,NNE,1.6
H03,2021,12,9,4,0.001,0.006,0.023,0.2,0,0.007,5,7.6,74.1,ENE,0.5
H03,2021,12,9,5,0.001,0.005,0.014,0.2,0.001,0.011,5,6.3,80.2,ENE,0.6
H03,2021,12,9,6,0.001,0.007,0.005,0.2,0.003,0.017,4,5.3,85.2,NNW,0.3
H03,2021,12,9,7,0.001,0.007,0.001,0.3,0.023,0.022,5,4.9,85.1,WSW,0.4
H03,2021,12,9,8,0.001,0.011,0.001,0.4,0.042,0.021,7,7.2,81.8,E,0.6
H03,2021,12,9,9,0.001,0.012,0.005,0.4,0.031,0.02,8,10.8,65.9,NNE,0.8
H03,2021,12,9,10,0.002,0.011,0.021,0.3,0.006,0.011,5,13.2,55.7,NE,1
H03,2021,12,9,11,0.002,0.011,0.026,0.3,0.005,0.009,6,13.7,50,NW,1.1
H03,2021,12,9,12,0.002,0.009,0.026,0.2,0.005,0.012,5,14.7,47.7,NE,1.1
H03,2021,12,9,13,0.001,0.008,0.031,0.2,0.003,0.008,4,15.8,40.7,NNE,1.2
H03,2021,12,9,14,0.001,0.008,0.035,0.2,0.002,0.006,3,16.4,33.8,W,1.6
H03,2021,12,9,15,0.002,0.012,0.035,0.2,0.002,0.009,8,16.8,33,W,1.4
H03,2021,12,9,16,0.002,0.011,0.036,0.3,0.001,0.01,8,15.9,41,WNW,0.6
H03,2021,12,9,17,0.002,0.003,0.028,0.3,0.002,0.016,8,13.7,50.4,CALM,0.2
H03,2021,12,9,18,0.002,0.006,0.005,0.7,0.013,0.034,8,11.5,66.4,ENE,0.3
H03,2021,12,9,19,0.001,0.01,0,0.5,0.021,0.034,10,10.2,69.8,ENE,0.7
H03,2021,12,9,20,0.001,0.01,0,0.5,0.018,0.032,10,8.8,75,ENE,0.5
H03,2021,12,9,21,0.001,0.009,0.001,0.4,0.009,0.027,9,8.4,78.5,E,0.4
H03,2021,12,9,22,0.001,0.009,0.003,0.4,0.005,0.022,8,8.2,79,ENE,0.6
H03,2021,12,9,23,0.001,0.007,0.005,0.3,0.003,0.016,8,8,81.1,CALM,0.2
H03,2021,12,9,24,0.001,0.006,0.006,0.3,0.001,0.014,7,8,81.1,CALM,0.1
H03,2021,12,10,1,0.001,0.007,0.005,0.2,0.001,0.014,6,7.5,83,CALM,0.1
H03,2021,12,10,2,0.001,0.007,0.003,0.2,0.002,0.015,7,6.4,85,E,0.5
H03,2021,12,10,3,0.001,0.007,0.002,0.2,0.003,0.014,5,5.7,88,W,0.7
H03,2021,12,10,4,0.001,0.006,0.001,0.3,0.004,0.016,7,6.5,86.3,E,0.8
H03,2021,12,10,5,0.001,0.008,0,0.3,0.009,0.016,7,6.5,86.8,ENE,0.6
H03,2021,12,10,6,0.001,0.01,0,0.3,0.018,0.016,6,6,88.2,W,0.4
H03,2021,12,10,7,0.001,0.01,0,0.3,0.03,0.015,9,6.1,87.6,CALM,0.1
H03,2021,12,10,8,0.001,0.011,0.001,0.5,0.051,0.015,10,6.7,84.4,CALM,0.1
H03,2021,12,10,9,0.001,0.013,0.002,0.6,0.053,0.019,8,9,78.6,N,0.4
H03,2021,12,10,10,0.002,0.016,0.004,0.5,0.033,0.021,12,11.1,66.7,NNE,0.7
H03,2021,12,10,11,0.002,0.018,0.01,0.4,0.023,0.02,10,13.1,59,WNW,0.8
H03,2021,12,10,12,0.002,0.016,0.018,0.4,0.011,0.018,9,14.3,54.3,W,1.7
H03,2021,12,10,13,0.002,0.017,0.023,0.3,0.007,0.018,15,15.3,51.3,W,0.8
H03,2021,12,10,14,0.002,0.013,0.029,0.3,0.005,0.018,12,15,51.5,WSW,0.6
H03,2021,12,10,15,0.003,0.016,0.029,0.4,0.004,0.02,10,15.5,46.7,CALM,0.2
H03,2021,12,10,16,0.003,0.016,0.028,0.4,0.004,0.024,13,15.3,51.9,W,0.7
H03,2021,12,10,17,0.002,0.012,0.014,0.6,0.009,0.034,15,12.6,67.5,E,0.4
H03,2021,12,10,18,0.002,0.012,0.001,0.7,0.024,0.042,12,11.3,75.5,ENE,0.3
H03,2021,12,10,19,0.001,0.01,0,0.6,0.018,0.035,12,10,77.1,ENE,0.7
H03,2021,12,10,20,0.001,0.015,0,0.6,0.018,0.033,17,9.1,79.4,NE,0.6
H03,2021,12,10,21,0.001,0.013,0,0.5,0.016,0.031,13,8.5,82,ENE,0.3
H03,2021,12,10,22,0.001,0.015,0,0.5,0.014,0.028,12,7.6,85.2,CALM,0.2
H03,2021,12,10,23,0.001,0.013,0,0.6,0.017,0.026,13,7,88.3,CALM,0
H03,2021,12,10,24,0.001,0.014,0,0.5,0.014,0.024,11,6.4,88.2,CALM,0
H03,2021,12,11,1,0.001,0.01,0,0.4,0.013,0.02,14,6.2,87.6,ENE,0.6
H03,2021,12,11,2,0.001,0.013,0,0.4,0.008,0.019,11,5.9,88.5,ESE,0.4
H03,2021,12,11,3,0.001,0.015,0,0.3,0.005,0.017,13,5.4,89.6,CALM,0.1
H03,2021,12,11,4,0.001,0.012,0,0.4,0.008,0.014,11,4.8,88.4,E,0.9
H03,2021,12,11,5,0.001,0.011,0,0.3,0.008,0.013,9,5.2,89.4,E,0.5
H03,2021,12,11,6,0.001,0.012,0,0.3,0.01,0.016,10,4.7,89.3,CALM,0
H03,2021,12,11,7,0.001,0.012,0,0.3,0.026,0.013,10,4.4,89.3,CALM,0.2
H03,2021,12,11,8,0.001,0.013,0.001,0.4,0.039,0.017,11,6.4,82.7,ESE,0.6
H03,2021,12,11,9,0.001,0.012,0.005,0.4,0.022,0.016,9,8.7,71.1,ESE,0.4
H03,2021,12,11,10,0.002,0.015,0.009,0.3,0.019,0.016,7,11.8,61,WSW,1
H03,2021,12,11,11,0.002,0.011,0.022,0.3,0.007,0.012,8,14.2,53.5,WNW,1.1
H03,2021,12,11,12,0.002,0.012,0.028,0.3,0.007,0.012,6,15.2,51.2,NNE,1.3
H03,2021,12,11,13,0.003,0.013,0.034,0.2,0.002,0.008,9,16.8,51.1,W,2.8
H03,2021,12,11,14,0.003,0.013,0.035,0.2,0.004,0.009,10,17.1,50.7,W,2.7
H03,2021,12,11,15,0.002,0.012,0.036,0.2,0.002,0.008,7,16.4,54.9,W,2.1
H03,2021,12,11,16,0.002,0.008,0.03,0.2,0.006,0.011,5,15.5,57,W,2.4
H03,2021,12,11,17,0.002,0.005,0.029,0.2,0.006,0.013,6,14.7,61.2,W,0.8
H03,2021,12,11,18,0.002,0.006,0.03,0.2,0.001,0.009,6,13.7,65,WSW,0.7
H03,2021,12,11,19,0.002,0.005,0.025,0.3,0.002,0.013,7,12.3,70,ENE,0.5
H03,2021,12,11,20,0.001,0.009,0.013,0.4,0.002,0.02,9,10.1,78.5,CALM,0.1
H03,2021,12,11,21,0.001,0.013,0.006,0.4,0.002,0.021,11,9.3,82.3,E,0.6
H03,2021,12,11,22,0.001,0.013,0.005,0.4,0.003,0.018,14,8.3,86.3,CALM,0
H03,2021,12,11,23,0.001,0.008,0.003,0.4,0.004,0.017,12,7.8,86.4,E,0.5
H03,2021,12,11,24,0.001,0.005,0.003,0.3,0.002,0.013,7,7.2,87.9,E,0.5
H03,2021,12,12,1,0.001,0.007,0.004,0.3,0.001,0.011,8,6.5,89.2,CALM,0
H03,2021,12,12,2,0.001,0.005,0.002,0.3,0.001,0.011,7,6.2,88.5,E,0.7
H03,2021,12,12,3,0.001,0.007,0.002,0.3,0.002,0.011,10,6,89.1,E,0.3
H03,2021,12,12,4,0.001,0.008,0.001,0.3,0.002,0.011,8,5.4,90.1,W,0.4
H03,2021,12,12,5,0.001,0.01,0.001,0.3,0.002,0.01,10,6.3,87.8,E,0.6
H03,2021,12,12,6,0.001,0.011,0.002,0.2,0.002,0.01,10,6.2,89,WNW,0.3
H03,2021,12,12,7,0.001,0.009,0.001,0.3,0.004,0.011,10,6.2,89.9,ENE,0.6
H03,2021,12,12,8,0.001,0.011,0.001,0.4,0.014,0.011,11,7.6,86.9,ESE,0.6
H03,2021,12,12,9,0.001,0.014,0.008,0.3,0.008,0.009,9,9.7,77.6,WNW,0.6
H03,2021,12,12,10,0.001,0.016,0.014,0.4,0.005,0.009,11,12.9,67.4,W,0.9
H03,2021,12,12,11,0.001,0.014,0.015,0.3,0.005,0.012,11,13.3,61.3,WSW,0.9
H03,2021,12,12,12,0.002,0.014,0.016,0.3,0.005,0.015,10,13.5,59.2,E,0.4
H03,2021,12,12,13,0.002,0.017,0.019,0.4,0.006,0.015,13,14.7,59,E,0.6
H03,2021,12,12,14,0.005,0.014,0.028,0.8,0.003,0.015,12,16.2,53.2,W,1
H03,2021,12,12,15,0.004,0.016,0.031,0.6,0.002,0.015,12,15.6,55.4,W,0.7
H03,2021,12,12,16,0.003,0.015,0.035,0.4,0.001,0.011,14,15,58.7,W,0.6
H03,2021,12,12,17,0.002,0.019,0.032,0.4,0,0.012,16,14.4,62.2,W,0.8
H03,2021,12,12,18,0.002,0.017,0.022,0.5,0.001,0.017,16,13.8,67.4,CALM,0.2
H03,2021,12,12,19,0.002,0.024,0.007,0.6,0.003,0.026,22,13.2,72.3,W,0.4
H03,2021,12,12,20,0.002,0.013,0.032,0.3,0,0.011,10,13.4,67.8,W,2.7
H03,2021,12,12,21,0.002,0.007,0.04,0.3,0,0.005,9,13.1,67.3,W,3.3
H03,2021,12,12,22,0.002,0.01,0.041,0.2,0,0.003,10,12.9,66.5,W,4.2
H03,2021,12,12,23,0.001,0.006,0.039,0.2,0,0.003,5,12.2,69.7,W,3.9
H03,2021,12,12,24,0.001,0.005,0.037,0.2,0,0.004,5,12,59.1,W,3.2
H03,2021,12,13,1,0.001,0.012,0.039,0.2,0,0.003,7,11.7,54.6,SW,2.1
H03,2021,12,13,2,0.001,0.013,0.038,0.2,0,0.003,10,11.3,55.5,SSW,1.1
H03,2021,12,13,3,0.001,0.014,0.037,0.2,0,0.003,10,10.5,61.9,W,2.5
H03,2021,12,13,4,0.001,0.01,0.037,0.2,0,0.003,9,9.6,63.3,W,2.8
H03,2021,12,13,5,0.001,0.006,0.036,0.2,0,0.003,7,9,63.7,W,2.3
H03,2021,12,13,6,0.001,0.005,0.034,0.2,0,0.004,6,8.3,68,W,3
H03,2021,12,13,7,0.001,0.002,0.031,0.2,0,0.005,5,8.1,67.2,W,2.1
H03,2021,12,13,8,0.001,0.002,0.029,0.2,0.001,0.008,2,8.9,60.4,W,1.9
H03,2021,12,13,9,0.001,0.003,0.028,0.3,0.004,0.01,2,10.2,49,W,2.3
H03,2021,12,13,10,0.001,0.003,0.033,0.2,0.004,0.006,4,10.8,41.5,WSW,4.1
H03,2021,12,13,11,0.001,0.004,0.034,0.2,0.003,0.004,2,10.8,40.3,W,4
H03,2021,12,13,12,0.001,0.003,0.034,0.2,0.004,0.003,1,11.2,39.2,W,4.7
H03,2021,12,13,13,0.001,0.002,0.034,0.2,0.002,0.003,1,11.4,37.5,W,4.3
H03,2021,12,13,14,0.001,0.003,0.035,0.2,0.002,0.003,1,11.8,35.5,W,3.9
H03,2021,12,13,15,0.001,0.005,0.035,0.2,0.002,0.003,0,11.1,36.8,WSW,4.4
H03,2021,12,13,16,0.001,0.003,0.034,0.2,0.002,0.005,2,10.2,41.6,WSW,3.5
H03,2021,12,13,17,0.001,0,0.032,0.2,0.002,0.006,4,9.1,44.8,SSW,1.5
H03,2021,12,13,18,0.001,0,0.031,0.2,0.002,0.005,2,8.2,43.8,NNE,1.8
H03,2021,12,13,19,0.001,0.001,0.032,0.2,0.001,0.005,3,7.7,46.4,SW,1
H03,2021,12,13,20,0.001,0.002,0.029,0.2,0.001,0.007,2,7,49.3,NNE,0.9
H03,2021,12,13,21,0.001,0.004,0.03,0.2,0,0.007,2,6.8,46.5,SW,1.2
H03,2021,12,13,22,0.001,0.003,0.035,0.2,0,0.003,2,6.8,46.4,S,0.8
H03,2021,12,13,23,0.001,0.003,0.033,0.2,0,0.004,3,6.1,49.8,ENE,1
H03,2021,12,13,24,0.001,0.005,0.026,0.2,0,0.007,4,3.9,59.7,E,0.8
H03,2021,12,14,1,***,0.003,0.021,***,***,***,6,3.2,64.2,ENE,0.8
H03,2021,12,14,2,0.001,0.004,0.016,0.2,0.001,0.012,7,3,65.7,ESE,0.4
H03,2021,12,14,3,0.001,0.001,0.022,0.2,0,0.008,4,2.1,63.8,WSW,0.8
H03,2021,12,14,4,0.001,0.005,0.02,0.2,0.001,0.008,4,1.9,68.3,E,0.6
H03,2021,12,14,5,0.001,0.004,0.006,0.2,0.002,0.019,3,2.1,68.5,ENE,0.3
H03,2021,12,14,6,0.001,0.006,0.012,0.2,0.001,0.012,4,2.7,63.1,WSW,0.6
H03,2021,12,14,7,0.001,0.006,0.011,0.2,0.001,0.016,5,3.5,59.5,W,1.3